Time,TemperatureF,DewpointF,PressureIn,WindDirection,WindDirectionDegrees,WindSpeedMPH,WindSpeedGustMPH,Humidity,HourlyPrecipIn,Conditions,Clouds,dailyrainin,SoftwareType,DateUTC
2013-02-27 00:06:00,29.1,28.6,29.82,NW,315,5.3,-999.0,98,-99.99,,,0.00,Acu-Link.com,2013-02-27 06:06:00,
2013-02-27 00:21:00,28.9,28.4,29.82,West,270,5.8,-999.0,98,-99.99,,,0.00,Acu-Link.com,2013-02-27 06:21:00,
2013-02-27 00:36:00,28.6,28.1,29.82,WNW,292,7.3,-999.0,98,-99.99,,,0.00,Acu-Link.com,2013-02-27 06:36:00,
2013-02-27 00:51:00,28.6,28.1,29.83,West,270,5.8,-999.0,98,-99.99,,,0.00,Acu-Link.com,2013-02-27 06:51:00,
2013-02-27 01:07:00,28.4,27.9,29.83,West,270,6.8,-999.0,98,-99.99,,,0.00,Acu-Link.com,2013-02-27 07:07:00,
2013-02-27 01:22:00,28.4,27.9,29.82,NNW,337,5.8,-999.0,98,-99.99,,,0.00,Acu-Link.com,2013-02-27 07:22:00,
2013-02-27 01:37:00,28.0,27.5,29.82,West,270,8.3,-999.0,98,-99.99,,,0.00,Acu-Link.com,2013-02-27 07:37:00,
2013-02-27 01:53:00,27.7,27.2,29.83,NNW,337,5.8,-999.0,98,-99.99,,,0.00,Acu-Link.com,2013-02-27 07:53:00,
2013-02-27 02:08:00,27.3,26.8,29.81,WNW,292,8.3,-999.0,98,-99.99,,,0.00,Acu-Link.com,2013-02-27 08:08:00,
2013-02-27 02:23:00,27.3,26.8,29.81,NNW,337,6.3,-999.0,98,-99.99,,,0.00,Acu-Link.com,2013-02-27 08:23:00,
2013-02-27 02:38:00,27.1,26.6,29.81,West,270,6.3,-999.0,98,-99.99,,,0.00,Acu-Link.com,2013-02-27 08:38:00,
2013-02-27 02:53:00,27.0,26.5,29.81,WNW,292,9.4,-999.0,98,-99.99,,,0.00,Acu-Link.com,2013-02-27 08:53:00,
2013-02-27 03:17:00,26.8,26.3,29.81,NW,315,8.3,-999.0,98,-99.99,,,0.00,Acu-Link.com,2013-02-27 09:17:00,
2013-02-27 03:33:00,26.4,25.9,29.80,NNW,337,6.8,-999.0,98,-99.99,,,0.00,Acu-Link.com,2013-02-27 09:33:00,
2013-02-27 03:48:00,26.2,25.7,29.81,WNW,292,6.3,-999.0,98,-99.99,,,0.00,Acu-Link.com,2013-02-27 09:48:00,
2013-02-27 04:03:00,26.2,25.7,29.82,West,270,10.4,-999.0,98,-99.99,,,0.00,Acu-Link.com,2013-02-27 10:03:00,
2013-02-27 04:18:00,26.1,25.6,29.82,NNW,337,6.3,-999.0,98,-99.99,,,0.00,Acu-Link.com,2013-02-27 10:18:00,
2013-02-27 04:33:00,26.1,25.6,29.82,NNW,337,6.8,-999.0,98,-99.99,,,0.00,Acu-Link.com,2013-02-27 10:33:00,
2013-02-27 04:48:00,26.1,25.6,29.83,WNW,292,8.9,-999.0,98,-99.99,,,0.00,Acu-Link.com,2013-02-27 10:48:00,
2013-02-27 05:04:00,25.9,25.4,29.83,WNW,292,9.9,-999.0,98,-99.99,,,0.00,Acu-Link.com,2013-02-27 11:04:00,
2013-02-27 05:19:00,25.9,25.4,29.83,NNW,337,11.9,-999.0,98,-99.99,,,0.00,Acu-Link.com,2013-02-27 11:19:00,
2013-02-27 05:34:00,25.9,25.4,29.84,NNW,337,9.4,-999.0,98,-99.99,,,0.00,Acu-Link.com,2013-02-27 11:34:00,
2013-02-27 05:50:00,25.9,25.4,29.85,NW,315,7.3,-999.0,98,-99.99,,,0.00,Acu-Link.com,2013-02-27 11:50:00,
2013-02-27 06:05:00,25.9,25.4,29.84,NNW,337,6.8,-999.0,98,-99.99,,,0.00,Acu-Link.com,2013-02-27 12:05:00,
2013-02-27 06:20:00,25.9,25.4,29.85,NW,315,7.8,-999.0,98,-99.99,,,0.00,Acu-Link.com,2013-02-27 12:20:00,
2013-02-27 06:35:00,25.9,25.4,29.85,NNW,337,7.3,-999.0,98,-99.99,,,0.00,Acu-Link.com,2013-02-27 12:35:00,
2013-02-27 06:50:00,25.7,25.2,29.85,NNW,337,13.0,-999.0,98,-99.99,,,0.00,Acu-Link.com,2013-02-27 12:50:00,
2013-02-27 07:06:00,25.7,25.2,29.86,WNW,292,11.4,-999.0,98,-99.99,,,0.00,Acu-Link.com,2013-02-27 13:06:00,
2013-02-27 07:21:00,25.7,25.2,29.86,NW,315,9.4,-999.0,98,-99.99,,,0.00,Acu-Link.com,2013-02-27 13:21:00,
2013-02-27 07:36:00,25.7,25.2,29.87,NNW,337,5.3,-999.0,98,-99.99,,,0.00,Acu-Link.com,2013-02-27 13:36:00,
2013-02-27 07:51:00,26.1,25.6,29.87,NW,315,10.9,-999.0,98,-99.99,,,0.00,Acu-Link.com,2013-02-27 13:51:00,
2013-02-27 08:06:00,26.1,25.6,29.87,West,270,4.7,-999.0,98,-99.99,,,0.00,Acu-Link.com,2013-02-27 14:06:00,
2013-02-27 08:22:00,26.2,25.7,29.87,NW,315,7.8,-999.0,98,-99.99,,,0.00,Acu-Link.com,2013-02-27 14:22:00,
2013-02-27 08:37:00,26.6,26.1,29.88,West,270,7.8,-999.0,98,-99.99,,,0.00,Acu-Link.com,2013-02-27 14:37:00,
2013-02-27 08:52:00,26.8,26.3,29.87,West,270,9.9,-999.0,98,-99.99,,,0.00,Acu-Link.com,2013-02-27 14:52:00,
2013-02-27 09:07:00,27.1,26.6,29.88,NNW,337,8.3,-999.0,98,-99.99,,,0.00,Acu-Link.com,2013-02-27 15:07:00,
2013-02-27 09:23:00,27.9,27.4,29.88,West,270,9.4,-999.0,98,-99.99,,,0.00,Acu-Link.com,2013-02-27 15:23:00,
2013-02-27 09:38:00,28.6,28.1,29.87,West,270,7.8,-999.0,98,-99.99,,,0.00,Acu-Link.com,2013-02-27 15:38:00,
2013-02-27 09:53:00,28.6,28.1,29.88,WNW,292,10.4,-999.0,98,-99.99,,,0.00,Acu-Link.com,2013-02-27 15:53:00,
2013-02-27 10:08:00,29.7,29.2,29.87,West,270,8.9,-999.0,98,-99.99,,,0.00,Acu-Link.com,2013-02-27 16:08:00,
2013-02-27 10:23:00,30.9,30.4,29.87,West,270,11.9,-999.0,98,-99.99,,,0.00,Acu-Link.com,2013-02-27 16:23:00,
2013-02-27 10:39:00,31.1,30.6,29.86,West,270,10.9,-999.0,98,-99.99,,,0.00,Acu-Link.com,2013-02-27 16:39:00,
2013-02-27 10:54:00,32.5,32.0,29.87,NW,315,6.8,-999.0,98,-99.99,,,0.00,Acu-Link.com,2013-02-27 16:54:00,
2013-02-27 11:09:00,33.3,30.4,29.86,WNW,292,8.9,-999.0,89,-99.99,,,0.00,Acu-Link.com,2013-02-27 17:09:00,
2013-02-27 11:25:00,33.8,30.6,29.86,NNW,337,11.4,-999.0,88,-99.99,,,0.00,Acu-Link.com,2013-02-27 17:25:00,
2013-02-27 11:40:00,34.9,31.1,29.87,NW,315,10.9,-999.0,86,-99.99,,,0.00,Acu-Link.com,2013-02-27 17:40:00,
2013-02-27 11:55:00,34.9,30.9,29.87,West,270,14.0,-999.0,85,-99.99,,,0.00,Acu-Link.com,2013-02-27 17:55:00,
2013-02-27 12:10:00,36.5,31.8,29.87,NW,315,12.5,-999.0,83,-99.99,,,0.00,Acu-Link.com,2013-02-27 18:10:00,
2013-02-27 12:25:00,37.4,32.4,29.87,NNW,337,17.1,-999.0,82,-99.99,,,0.00,Acu-Link.com,2013-02-27 18:25:00,
2013-02-27 12:41:00,39.9,35.2,29.86,WNW,292,12.5,-999.0,83,-99.99,,,0.00,Acu-Link.com,2013-02-27 18:41:00,
2013-02-27 12:56:00,38.1,32.8,29.86,NNW,337,13.0,-999.0,81,-99.99,,,0.00,Acu-Link.com,2013-02-27 18:56:00,
2013-02-27 13:11:00,37.9,32.6,29.85,NW,315,13.0,-999.0,81,-99.99,,,0.00,Acu-Link.com,2013-02-27 19:11:00,
2013-02-27 13:26:00,37.9,32.6,29.86,NW,315,13.5,-999.0,81,-99.99,,,0.00,Acu-Link.com,2013-02-27 19:26:00,
2013-02-27 13:42:00,37.8,32.8,29.87,WNW,292,13.5,-999.0,82,-99.99,,,0.00,Acu-Link.com,2013-02-27 19:42:00,
2013-02-27 13:57:00,38.5,33.5,29.86,West,270,10.4,-999.0,82,-99.99,,,0.00,Acu-Link.com,2013-02-27 19:57:00,
2013-02-27 14:12:00,39.4,34.4,29.86,NW,315,9.9,-999.0,82,-99.99,,,0.00,Acu-Link.com,2013-02-27 20:12:00,
2013-02-27 14:27:00,39.6,33.9,29.86,WNW,292,11.9,-999.0,80,-99.99,,,0.00,Acu-Link.com,2013-02-27 20:27:00,
2013-02-27 14:43:00,39.4,33.8,29.87,NW,315,11.4,-999.0,80,-99.99,,,0.00,Acu-Link.com,2013-02-27 20:43:00,
2013-02-27 14:58:00,39.6,33.9,29.87,WNW,292,8.3,-999.0,80,-99.99,,,0.00,Acu-Link.com,2013-02-27 20:58:00,
2013-02-27 15:13:00,39.2,32.9,29.88,NNW,337,16.1,-999.0,78,-99.99,,,0.00,Acu-Link.com,2013-02-27 21:13:00,
2013-02-27 15:28:00,39.4,33.8,29.89,NW,315,19.1,-999.0,80,-99.99,,,0.00,Acu-Link.com,2013-02-27 21:28:00,
2013-02-27 15:44:00,39.9,33.9,29.89,WNW,292,12.5,-999.0,79,-99.99,,,0.00,Acu-Link.com,2013-02-27 21:44:00,
2013-02-27 15:59:00,40.3,33.7,29.90,West,270,9.4,-999.0,77,-99.99,,,0.00,Acu-Link.com,2013-02-27 21:59:00,
2013-02-27 16:14:00,40.5,33.5,29.90,NNW,337,8.9,-999.0,76,-99.99,,,0.00,Acu-Link.com,2013-02-27 22:14:00,
2013-02-27 16:29:00,39.9,33.3,29.90,NNW,337,13.5,-999.0,77,-99.99,,,0.00,Acu-Link.com,2013-02-27 22:29:00,
2013-02-27 16:44:00,39.2,32.9,29.90,NW,315,16.6,-999.0,78,-99.99,,,0.00,Acu-Link.com,2013-02-27 22:44:00,
2013-02-27 17:00:00,37.9,32.3,29.92,WNW,292,11.4,-999.0,80,-99.99,,,0.00,Acu-Link.com,2013-02-27 23:00:00,
2013-02-27 17:15:00,37.0,31.4,29.92,NW,315,13.0,-999.0,80,-99.99,,,0.00,Acu-Link.com,2013-02-27 23:15:00,
2013-02-27 17:30:00,36.7,31.7,29.93,West,270,11.4,-999.0,82,-99.99,,,0.00,Acu-Link.com,2013-02-27 23:30:00,
2013-02-27 17:46:00,36.3,31.0,29.94,NW,315,7.3,-999.0,81,-99.99,,,0.00,Acu-Link.com,2013-02-27 23:46:00,
2013-02-27 18:01:00,35.6,31.3,29.94,NW,315,18.6,-999.0,84,-99.99,,,0.00,Acu-Link.com,2013-02-28 00:01:00,
2013-02-27 18:16:00,34.9,31.4,29.95,NW,315,7.3,-999.0,87,-99.99,,,0.00,Acu-Link.com,2013-02-28 00:16:00,
2013-02-27 18:31:00,34.5,31.0,29.96,West,270,11.9,-999.0,87,-99.99,,,0.00,Acu-Link.com,2013-02-28 00:31:00,
2013-02-27 18:46:00,34.3,31.1,29.97,NNW,337,13.5,-999.0,88,-99.99,,,0.00,Acu-Link.com,2013-02-28 00:46:00,
2013-02-27 19:02:00,34.2,31.3,29.97,WNW,292,9.9,-999.0,89,-99.99,,,0.00,Acu-Link.com,2013-02-28 01:02:00,
2013-02-27 19:17:00,34.2,31.9,29.98,NNW,337,13.0,-999.0,91,-99.99,,,0.00,Acu-Link.com,2013-02-28 01:17:00,
2013-02-27 19:32:00,33.6,33.1,29.98,WNW,292,8.3,-999.0,98,-99.99,,,0.00,Acu-Link.com,2013-02-28 01:32:00,
2013-02-27 19:47:00,33.3,32.8,29.98,WNW,292,8.9,-999.0,98,-99.99,,,0.00,Acu-Link.com,2013-02-28 01:47:00,
2013-02-27 20:03:00,33.4,32.9,29.98,NNW,337,9.9,-999.0,98,-99.99,,,0.00,Acu-Link.com,2013-02-28 02:03:00,
2013-02-27 20:18:00,33.3,32.8,29.99,WNW,292,8.9,-999.0,98,-99.99,,,0.00,Acu-Link.com,2013-02-28 02:18:00,
2013-02-27 20:33:00,32.9,32.4,29.99,NW,315,5.8,-999.0,98,-99.99,,,0.00,Acu-Link.com,2013-02-28 02:33:00,
2013-02-27 20:48:00,32.9,32.4,29.99,WNW,292,8.3,-999.0,98,-99.99,,,0.00,Acu-Link.com,2013-02-28 02:48:00,
2013-02-27 21:04:00,32.5,32.0,29.99,WNW,292,5.8,-999.0,98,-99.99,,,0.00,Acu-Link.com,2013-02-28 03:04:00,
2013-02-27 21:19:00,32.2,31.7,30.00,West,270,8.3,-999.0,98,-99.99,,,0.00,Acu-Link.com,2013-02-28 03:19:00,
2013-02-27 21:34:00,32.0,31.5,30.00,West,270,14.5,-999.0,98,-99.99,,,0.00,Acu-Link.com,2013-02-28 03:34:00,
2013-02-27 21:49:00,31.6,31.1,30.00,West,270,10.9,-999.0,98,-99.99,,,0.00,Acu-Link.com,2013-02-28 03:49:00,
2013-02-27 22:05:00,31.1,30.6,30.01,WNW,292,11.4,-999.0,98,-99.99,,,0.00,Acu-Link.com,2013-02-28 04:05:00,
2013-02-27 22:20:00,30.9,30.4,30.01,WNW,292,12.5,-999.0,98,-99.99,,,0.00,Acu-Link.com,2013-02-28 04:20:00,
2013-02-27 22:35:00,31.1,30.6,30.01,NNW,337,17.6,-999.0,98,-99.99,,,0.00,Acu-Link.com,2013-02-28 04:35:00,
2013-02-27 22:50:00,31.5,31.0,30.01,WNW,292,10.4,-999.0,98,-99.99,,,0.00,Acu-Link.com,2013-02-28 04:50:00,
2013-02-27 23:05:00,31.8,31.3,30.01,West,270,9.4,-999.0,98,-99.99,,,0.00,Acu-Link.com,2013-02-28 05:05:00,
2013-02-27 23:21:00,31.8,31.3,30.01,NW,315,7.3,-999.0,98,-99.99,,,0.00,Acu-Link.com,2013-02-28 05:21:00,
2013-02-27 23:36:00,31.6,31.1,30.01,NW,315,12.5,-999.0,98,-99.99,,,0.00,Acu-Link.com,2013-02-28 05:36:00,
2013-02-27 23:51:00,31.6,31.1,30.02,WNW,292,10.4,-999.0,98,-99.99,,,0.00,Acu-Link.com,2013-02-28 05:51:00,